Weather History for KMXO - April, 2013

Change the Weather History Date:

Thursday, April 25, 2013

  Actual Average Record
Temperature  
Mean Temperature 44 °F -  
Max Temperature 55 °F 62 °F 77 °F (2008)
Min Temperature 33 °F 41 °F 30 °F (2005)
Degree Days  
Heating Degree Days 21    
Moisture  
Dew Point 25 °F    
Average Humidity 51    
Maximum Humidity 81    
Minimum Humidity 14    
Precipitation  
Precipitation 0.00 in - - ()
Sea Level Pressure  
Sea Level Pressure 30.21 in    
Wind  
Wind Speed 11 mph (West)    
Max Wind Speed 22 mph    
Max Gust Speed 30 mph    
Visibility 10 miles    
Events Rain    
Averages and records for this station are not official NWS values.
T = Trace of Precipitation, MM = Missing Value Source: NWS Daily Summary

Daily Weather History Graph

Daily Weather History Graph

Search for Another Location

Airport or City:

Trip Planner

Search our weather history database for the weather conditions in past years. The results will help you decide how hot, cold, wet, or windy it might be!

Date:

Astronomy

Apr. 25, 2013 Rise Set
Actual Time 6:08 AM CDT 7:57 PM CDT
Civil Twilight 5:38 AM CDT 8:27 PM CDT
Nautical Twilight 5:01 AM CDT 9:04 PM CDT
Astronomical Twilight 4:22 AM CDT 9:43 PM CDT
Moon 8:11 PM CDT (4/25) 5:51 AM CDT (4/25)
Length of Visible Light 14h 49m
Length of Day
13h 49m
Full, 100% of the Moon is Illuminated
Apr 25
Full
Apr 25
Full
May 2
Last Quarter
May 9
New
May 17
First Quarter

Hourly Weather History & Observations

Time (CDT) Temp. Windchill Dew Point Humidity Pressure Visibility Wind Dir Wind Speed Gust Speed Precip Events Conditions
12:15 AM 42.8 °F 37.5 °F 37.4 °F 81% 30.06 in 10.0 mi SW 9.2 mph - N/A   Mostly Cloudy
12:35 AM 42.8 °F 37.0 °F 37.4 °F 81% 30.07 in 10.0 mi SW 10.4 mph - N/A   Overcast
12:55 AM 42.8 °F 37.0 °F 37.4 °F 81% 30.07 in 10.0 mi WSW 10.4 mph - N/A   Overcast
1:15 AM 42.8 °F 37.0 °F 37.4 °F 81% 30.07 in 10.0 mi WSW 10.4 mph - N/A   Drizzle
1:35 AM 42.8 °F 36.6 °F 37.4 °F 81% 30.07 in 10.0 mi West 11.5 mph - N/A Rain Light Rain
1:55 AM 42.8 °F 36.6 °F 37.4 °F 81% 30.07 in 10.0 mi West 11.5 mph - N/A   Overcast
2:15 AM 42.8 °F 35.4 °F 35.6 °F 76% 30.08 in 10.0 mi West 15.0 mph 23.0 mph N/A   Mostly Cloudy
2:35 AM 42.8 °F 36.2 °F 35.6 °F 76% 30.08 in 10.0 mi West 12.7 mph - N/A   Mostly Cloudy
2:55 AM 41.0 °F 34.3 °F 35.6 °F 81% 30.08 in 10.0 mi West 11.5 mph 18.4 mph N/A   Mostly Cloudy
3:15 AM 39.2 °F 31.6 °F 33.8 °F 81% 30.08 in 10.0 mi West 12.7 mph - N/A   Scattered Clouds
3:35 AM 39.2 °F 30.5 °F 33.8 °F 81% 30.09 in 10.0 mi West 16.1 mph - N/A   Scattered Clouds
3:55 AM 39.2 °F 30.5 °F 32.0 °F 75% 30.10 in 10.0 mi West 16.1 mph 24.2 mph N/A   Scattered Clouds
4:15 AM 37.4 °F 27.2 °F 30.2 °F 75% 30.11 in 10.0 mi West 19.6 mph 25.3 mph N/A   Clear
4:35 AM 35.6 °F 25.5 °F 28.4 °F 75% 30.12 in 10.0 mi WNW 17.3 mph 24.2 mph N/A   Clear
4:55 AM 35.6 °F 25.5 °F 28.4 °F 75% 30.13 in 10.0 mi West 17.3 mph - N/A   Clear
5:15 AM 35.6 °F 26.2 °F 26.6 °F 70% 30.14 in 10.0 mi WNW 15.0 mph 18.4 mph N/A   Clear
5:35 AM 35.6 °F 26.6 °F 26.6 °F 70% 30.14 in 10.0 mi West 13.8 mph 20.7 mph N/A   Clear
5:55 AM 35.6 °F 26.6 °F 26.6 °F 70% 30.15 in 10.0 mi WNW 13.8 mph - N/A   Clear
6:15 AM 33.8 °F 26.4 °F 26.6 °F 75% 30.16 in 10.0 mi West 9.2 mph - N/A   Clear
6:35 AM 33.8 °F 24.8 °F 26.6 °F 75% 30.17 in 10.0 mi West 12.7 mph - N/A   Clear
6:55 AM 35.6 °F 27.1 °F 26.6 °F 70% 30.18 in 10.0 mi WNW 12.7 mph - N/A   Clear
7:15 AM 35.6 °F 26.6 °F 26.6 °F 70% 30.18 in 10.0 mi WNW 13.8 mph - N/A   Clear
7:35 AM 35.6 °F 25.5 °F 26.6 °F 70% 30.19 in 10.0 mi WNW 17.3 mph 21.9 mph N/A   Clear
7:55 AM 35.6 °F 25.2 °F 26.6 °F 70% 30.20 in 10.0 mi WNW 18.4 mph 27.6 mph N/A   Clear
8:15 AM 35.6 °F 24.2 °F 24.8 °F 65% 30.21 in 10.0 mi NW 21.9 mph 29.9 mph N/A   Clear
8:35 AM 37.4 °F 26.6 °F 26.6 °F 65% 30.22 in 10.0 mi NW 21.9 mph - N/A   Clear
8:55 AM 37.4 °F 26.9 °F 26.6 °F 65% 30.23 in 10.0 mi NW 20.7 mph 26.5 mph N/A   Clear
9:15 AM 39.2 °F 29.6 °F 26.6 °F 61% 30.24 in 10.0 mi NW 19.6 mph 24.2 mph N/A   Clear
9:35 AM 39.2 °F 31.2 °F 28.4 °F 65% 30.25 in 10.0 mi NW 13.8 mph 18.4 mph N/A   Scattered Clouds
9:55 AM 41.0 °F 32.5 °F 28.4 °F 61% 30.25 in 10.0 mi WNW 17.3 mph - N/A   Scattered Clouds
10:15 AM 42.8 °F 35.4 °F 28.4 °F 57% 30.26 in 10.0 mi WNW 15.0 mph 18.4 mph N/A   Clear
10:35 AM 42.8 °F 35.8 °F 28.4 °F 57% 30.26 in 10.0 mi WNW 13.8 mph 20.7 mph N/A   Clear
10:55 AM 44.6 °F 38.8 °F 28.4 °F 53% 30.26 in 10.0 mi WNW 11.5 mph - N/A   Clear
11:15 AM 44.6 °F 38.4 °F 26.6 °F 49% 30.27 in 10.0 mi NW 12.7 mph 18.4 mph N/A   Clear
11:35 AM 46.4 °F 41.1 °F 26.6 °F 46% 30.28 in 10.0 mi WNW 11.5 mph - N/A   Clear
11:55 AM 46.4 °F 40.7 °F 26.6 °F 46% 30.28 in 10.0 mi West 12.7 mph 18.4 mph N/A   Clear
12:15 PM 46.4 °F 39.8 °F 23.0 °F 40% 30.28 in 10.0 mi WNW 16.1 mph 19.6 mph N/A   Clear
12:35 PM 46.4 °F 41.5 °F 21.2 °F 37% 30.28 in 10.0 mi West 10.4 mph 19.6 mph N/A   Clear
12:55 PM 48.2 °F - 21.2 °F 34% 30.28 in 10.0 mi West 11.5 mph 16.1 mph N/A   Clear
1:15 PM 48.2 °F - 21.2 °F 34% 30.28 in 10.0 mi West 8.1 mph 23.0 mph N/A   Clear
1:35 PM 48.2 °F - 19.4 °F 32% 30.27 in 10.0 mi WNW 9.2 mph 16.1 mph N/A   Clear
1:55 PM 50.0 °F - 17.6 °F 28% 30.28 in 10.0 mi NW 9.2 mph 12.7 mph N/A   Clear
2:15 PM 51.8 °F - 17.6 °F 26% 30.27 in 10.0 mi West 13.8 mph - N/A   Clear
2:35 PM 51.8 °F - 17.6 °F 26% 30.27 in 10.0 mi West 9.2 mph 16.1 mph N/A   Clear
2:55 PM 51.8 °F - 17.6 °F 26% 30.27 in 10.0 mi West 12.7 mph 19.6 mph N/A   Clear
3:15 PM 51.8 °F - 17.6 °F 26% 30.27 in 10.0 mi WSW 8.1 mph - N/A   Clear
3:35 PM 53.6 °F - 15.8 °F 22% 30.26 in 10.0 mi West 8.1 mph - N/A   Clear
3:55 PM 53.6 °F - 10.4 °F 18% 30.26 in 10.0 mi West 6.9 mph - N/A   Clear
4:15 PM 53.6 °F - 10.4 °F 18% 30.26 in 10.0 mi WSW 6.9 mph - N/A   Clear
4:35 PM 53.6 °F - 10.4 °F 18% 30.25 in 10.0 mi WNW 8.1 mph - N/A   Clear
4:55 PM 53.6 °F - 10.4 °F 18% 30.25 in 10.0 mi West 6.9 mph - N/A   Clear
5:15 PM 53.6 °F - 5.0 °F 14% 30.25 in 10.0 mi West 5.8 mph - N/A   Clear
5:35 PM 55.4 °F - 6.8 °F 14% 30.25 in 10.0 mi WSW 10.4 mph 19.6 mph N/A   Clear
5:55 PM 55.4 °F - 6.8 °F 14% 30.25 in 10.0 mi West 8.1 mph - N/A   Clear
6:15 PM 55.4 °F - 8.6 °F 15% 30.24 in 10.0 mi Calm Calm - N/A   Clear
6:35 PM 55.4 °F - 8.6 °F 15% 30.23 in 10.0 mi NW 3.5 mph - N/A   Clear
6:55 PM 53.6 °F - 10.4 °F 18% 30.23 in 10.0 mi Calm Calm - N/A   Clear
7:15 PM 53.6 °F - 15.8 °F 22% 30.23 in 10.0 mi Calm Calm - N/A   Clear
7:35 PM 51.8 °F - 21.2 °F 30% 30.22 in 10.0 mi South 3.5 mph - N/A   Clear
7:55 PM 50.0 °F - 32.0 °F 50% 30.22 in 10.0 mi SE 3.5 mph - N/A   Clear
8:15 PM 48.2 °F - 26.6 °F 43% 30.22 in 10.0 mi SSE 4.6 mph - N/A   Clear
8:35 PM 46.4 °F 44.3 °F 30.2 °F 53% 30.24 in 10.0 mi SE 4.6 mph - N/A   Clear
8:55 PM 48.2 °F - 28.4 °F 46% 30.25 in 10.0 mi SE 4.6 mph - N/A   Clear
9:15 PM 46.4 °F 44.3 °F 28.4 °F 50% 30.25 in 10.0 mi SE 4.6 mph - N/A   Clear
9:35 PM 46.4 °F 42.9 °F 26.6 °F 46% 30.26 in 10.0 mi SE 6.9 mph - N/A   Clear
9:55 PM 46.4 °F 42.9 °F 28.4 °F 50% 30.26 in 10.0 mi SE 6.9 mph - N/A   Clear
10:15 PM 46.4 °F 42.9 °F 28.4 °F 50% 30.25 in 10.0 mi ESE 6.9 mph - N/A   Clear
10:35 PM 46.4 °F 42.9 °F 26.6 °F 46% 30.25 in 10.0 mi ESE 6.9 mph - N/A   Clear
10:55 PM 46.4 °F 42.4 °F 26.6 °F 46% 30.25 in 10.0 mi SE 8.1 mph - N/A   Clear
11:15 PM 46.4 °F 42.9 °F 26.6 °F 46% 30.25 in 10.0 mi SE 6.9 mph - N/A   Clear
11:35 PM 46.4 °F 42.4 °F 28.4 °F 50% 30.25 in 10.0 mi SE 8.1 mph - N/A   Clear
11:55 PM 44.6 °F 40.7 °F 28.4 °F 53% 30.25 in 10.0 mi SE 6.9 mph - N/A   Clear